COSMO-SKYMED 4 (37216 NORAD) Tracking and Keplerian Element Data

This shows tracking and keplerian element data for the satellite.

Feedback or suggestion? Click here.




ElementValue
Catalog37216
NameCOSMO-SKYMED 4
Epoch Orbit81806
Epoch Day354.27088512
Epoch Year2025
RAAN175.4801
Inclination97.8798
Eccentricity0.0001404
Argument of Perigee84.6872
Mean Anonmoly275.4502
Mean Motion14.82153365
Decay Rate5.61E-06
L11 37216U 10060A 25354.27088512 .00000561 00000+0 77011-4 0 9999
L22 37216 97.8798 175.4801 0001404 84.6872 275.4502 14.82153365818065



Live tracking and technical data element details for COSMO-SKYMED 4 (NORAD 37216). COSMO-SKYMED 4 can be tracked NOW for your location showing map with azimuth and elevation plus other details from your city location.







IsCatalogInMostPopularTable: catalog: 37216, numindb: 426
Update: records affected: 1



GetName: 37216 COSMO-SKYMED 4

Hit Count: updated at: Thu, 16 Apr 2026 04:49:12 GMT